Regional Weather Roundup
Issued by NWS Cleveland, OH

Home | Current Version | Previous Version | Text Only | Print | Product List | Glossary Off
Versions: 1 2 3 4 5 6 7 8 9 10 11 12 13 14 15 16 17 18 19 20 21 22 23 24 25 26 27 28 29 30 31 32 33 34 35 36 37 38 39 40 41 42 43 44 45 46 47 48 49 50

000
ASUS41 KCLE 061000
RWRCLE
OHIO REGIONAL WEATHER ROUNDUP
NATIONAL WEATHER SERVICE WILMINGTON, OH
500 AM EST TUE DEC 06 2016

NOTE: "FAIR" INDICATES FEW OR NO CLOUDS BELOW 12,000 FEET WITH NO
SIGNIFICANT WEATHER AND/OR OBSTRUCTIONS TO VISIBILITY.

OHZ001>008-015>018-024>027-034-035-043-044-061100-
   NORTHWEST OHIO

CITY           SKY/WX    TMP DP  RH WIND       PRES   REMARKS
DEFIANCE       FAIR      33  27  78 E10       29.89F WCI  25
FINDLAY        FAIR      32  26  78 E9        29.86F WCI  24
TOLEDO EXPRESS FAIR      34  31  88 E14       29.91F WCI  25
TOLEDO EXEC    FAIR      35  31  85 E8        29.93F WCI  29
LIMA           FAIR      31  29  92 E13       29.83F WCI  21
$$

OHZ009>014-019>023-028>033-038-089-061100-
   NORTHEAST OHIO

CITY           SKY/WX    TMP DP  RH WIND       PRES   REMARKS
CLE-HOPKINS    MOCLDY    36  26  67 E9        29.98F
CLE-LAKEFRONT  FAIR      33  27  78 CALM      29.96F
CUY CO. ARPT   NOT AVBL
LORAIN-ELYRIA  FAIR      27  23  85 E5        29.94F WCI  22
ASHTABULA      FAIR      31  27  85 E6        30.00F WCI  25
AKRON-CANTON   FAIR      34  26  72 E15       29.92F WCI  24
WOOSTER        NOT AVBL
MANSFIELD      FAIR      32  28  85 E8        29.87F WCI  25
YOUNGSTOWN     CLOUDY    32  27  81 E12       29.97S WCI  23
$$

OHZ042-051>053-060>062-070>072-077>081-061100-
  SOUTHWEST OHIO

CITY           SKY/WX    TMP DP  RH WIND       PRES   REMARKS
CINC-COVINGTON RAIN      39  36  89 E12       29.76F FOG
CINC-LUNKEN    RAIN      40  37  89 NE5       29.80F
HAMILTON       LGT RAIN  38  33  82 E6        29.81F
DAYTON         NOT AVBL
WRIGHT-PAT AFB FAIR      37  32  83 NE9       29.81F
DAYTON GENERAL LGT RAIN  38  30  73 E10       29.79F
WILMINGTON     LGT RAIN  36  32  85 E9        29.80F
$$

OHZ036-037-039>041-045>050-054>059-063>069-073>076-082>088-061100-
  CENTRAL AND SOUTHEAST OHIO

CITY           SKY/WX    TMP DP  RH WIND       PRES   REMARKS
COLUMBUS       CLOUDY    36  31  82 E10       29.84F
OSU AIRPORT    FAIR      35  31  85 E7        29.84F WCI  29
BOLTON FIELD   NOT AVBL
RICKENBACK AFB NOT AVBL
NEWARK         FAIR      34  28  79 NE8       29.86F WCI  27
MARION         FAIR      33  29  85 E9        29.86F WCI  25
LANCASTER      MOCLDY    36  31  82 VRB5      29.85F
ZANESVILLE     FAIR      37  28  70 E7        29.88F
NEW PHILLY     FAIR      35  28  75 E7        29.92F WCI  29
$$



USA.gov is the U.S. government's official web portal to all federal, state and local government web resources and services.